#timestamp,LO_Frequency,Hit,StdDev 
1505768415.4,286047000.7,N
1505768435.3,286046996.5,Y
1505768455.1,286046996.5,P
1505768475.9,286046999.1,N
1505768495.7,286046999.6,N
1505768515.5,286046999.2,N
1505768535.4,286046999.1,N
1505768555.2,286046997.2,N
1505768575.0,286046997.7,N
1505768576.0,286046997.7,N
1505768595.8,286046998.0,N
1505768615.6,286046995.3,Y
1505768635.5,286046996.5,P
1505768655.3,286046997.7,N
1505768675.1,286046997.1,P
1505768695.9,286046997.2,Y
1505768715.7,286047000.1,P
1505768735.6,286047000.9,N
1505768755.4,286047000.9,N
1505768775.2,286047001.2,N
1505768795.1,286047001.0,N
1505768796.0,286047001.0,N
1505768815.8,286047000.4,N
1505768835.7,286047000.6,N
1505768855.5,286047000.4,N
1505768875.3,286047001.0,N
1505768895.2,286047000.6,N
1505768915.9,286047002.8,N
1505768935.7,286047002.8,N
1505768955.6,286047000.3,N
1505768975.4,286047000.3,N
1505768995.2,286047000.0,N
1505769015.1,286047002.1,N
1505769016.0,286047002.1,N
1505769035.8,286047002.8,N
1505769055.7,286047000.2,N
1505769075.5,286047000.4,N
1505769095.3,286047000.1,N
1505769115.2,286047001.7,N
1505769135.0,286047001.4,N
1505769135.9,286047001.4,N
1505769155.8,286047004.0,Y
1505769175.6,286047002.6,P
1505769195.4,286047002.3,N
1505769215.3,286046999.7,N
1505769235.1,286047000.3,N
1505769255.9,286047002.3,N
1505769275.7,286047000.4,N
1505769295.5,286047002.4,N
1505769315.4,286047001.6,N
1505769335.2,286047003.7,Y
1505769355.1,286047000.6,P
1505769356.0,286047000.6,N
1505769375.8,286047000.7,N
1505769395.6,286046999.7,N
1505769415.5,286047000.4,N
1505769435.3,286047001.0,N
1505769455.1,286046999.8,N
1505769475.9,286047002.5,Y
1505769495.7,286047000.0,P
1505769515.6,286046999.7,N
1505769535.4,286047000.2,N
1505769555.2,286047001.2,Y
1505769575.1,286047000.6,P
1505769576.0,286047000.6,N
1505769595.8,286047000.1,N
1505769615.7,286046999.7,N
1505769635.5,286046999.8,N
1505769655.3,286047000.1,N
1505769675.2,286047004.0,Y
1505769695.0,286047004.4,P
1505769695.9,286047004.4,N
1505769715.7,286047001.9,N
1505769735.6,286047002.4,N
1505769755.4,286047002.3,N
1505769775.3,286047001.6,N
1505769795.1,286047002.1,N
1505769796.0,286047002.1,N
1505769815.8,286047002.5,N
1505769835.7,286047001.9,N
1505769855.5,286047001.9,N
1505769875.4,286047004.1,Y
1505769895.2,286046998.3,P
1505769915.0,286046998.9,N
1505769915.9,286046998.9,N
1505769935.8,286046999.4,N
1505769955.6,286046998.4,N
1505769975.4,286047001.0,N
1505769995.3,286047000.9,N
1505770015.1,286047000.4,N
1505770035.9,286046998.6,N
1505770055.7,286046998.5,N
1505770075.5,286047000.0,N
1505770095.4,286047000.0,N
1505770115.2,286047002.7,N
1505770135.0,286047000.6,N
1505770135.9,286047000.6,N
1505770155.8,286047001.1,N
1505770175.6,286047000.9,N
1505770195.5,286047000.9,N
1505770215.3,286047001.0,N
1505770235.1,286047001.0,N
1505770255.9,286047000.3,N
1505770275.7,286046998.4,N
1505770295.5,286047000.7,N
1505770315.4,286047000.5,N
1505770335.2,286047000.2,N
1505770355.1,286047002.2,N
1505770356.0,286047002.2,N
1505770375.8,286047003.9,Y
1505770395.6,286047002.4,P
1505770415.5,286047000.2,N
1505770435.3,286046999.8,N
1505770455.2,286047000.3,N
1505770475.9,286047002.2,N
1505770495.7,286047002.6,N
1505770515.6,286047001.5,N
1505770535.4,286047002.5,N
1505770555.2,286046999.7,N
1505770575.1,286047001.9,N
1505770576.0,286047001.9,N
1505770595.8,286047001.5,N
1505770615.7,286047002.7,N
1505770635.5,286046999.8,N
1505770655.3,286047002.2,N
1505770675.2,286047002.5,N
1505770695.0,286047002.8,N
1505770695.9,286047002.8,N
1505770715.8,286047002.4,N
1505770735.6,286047000.1,N
1505770755.4,286047000.1,N
1505770775.3,286047000.0,N
1505770795.1,286047000.5,N
1505770815.8,286047001.9,N
1505770835.7,286047002.6,N
1505770855.5,286047002.5,N
1505770875.4,286047000.1,N
1505770895.2,286047000.1,N
1505770915.0,286047000.3,N
1505770915.9,286047000.3,N
1505770935.8,286047002.4,N
1505770955.6,286047002.6,N
1505770975.4,286047002.6,N
1505770995.3,286046999.9,N
1505771015.1,286047002.3,N
1505771035.9,286047002.6,N
1505771055.7,286047002.4,N
1505771075.5,286047002.4,N
1505771095.4,286047002.1,N
1505771115.2,286047002.5,N
1505771135.0,286047002.5,N
1505771135.9,286047002.5,N
1505771155.8,286047002.2,N
1505771175.6,286047002.6,N
1505771195.5,286046999.7,N
1505771215.3,286046999.8,N
1505771235.1,286047002.8,N
1505771255.9,286047002.6,N
1505771275.7,286047002.3,N
1505771295.6,286047002.4,N
1505771315.4,286047000.1,N
1505771335.2,286047000.6,N
1505771355.1,286046999.7,N
1505771356.0,286046999.7,N
1505771375.8,286047000.0,N
1505771395.7,286047002.1,N
1505771415.5,286047002.5,N
1505771435.3,286047002.0,N
1505771455.2,286047002.1,N
1505771475.0,286047004.2,Y
1505771475.9,286047004.2,P
1505771495.8,286047000.1,N
1505771515.6,286047000.5,N
1505771535.4,286047000.2,N
1505771555.3,286047002.5,N
1505771575.1,286047000.9,N
1505771595.8,286047000.4,N
1505771615.7,286047000.2,N
1505771635.5,286047002.3,N
1505771655.4,286047002.6,N
1505771675.2,286047001.5,N
1505771695.1,286047003.7,N
1505771696.0,286047003.7,N
1505771715.8,286047001.4,N
1505771735.6,286047004.0,N
1505771755.5,286047003.1,N
1505771775.3,286047003.5,N
1505771795.1,286047002.8,N
1505771815.9,286047002.6,N
1505771835.7,286046999.8,N
1505771855.6,286046999.7,N
1505771875.4,286047002.3,N
1505771895.2,286047000.1,N
1505771915.1,286047002.1,N
1505771916.0,286047002.1,N
1505771935.8,286046999.9,N
1505771955.7,286047002.3,N
1505771975.5,286047002.2,N
1505771995.3,286047002.4,N
